Temp: 17.6°C   Baro: 1015.1mb
  Wind: 6.9mph   Dir: WSW (246°)
  Rain: 0.6mm (0.0mm/hr)
  Solar: 109W/m2  Hum: 57%
 
Bath Spa Weather Station Historical Data
Daily Summary for July 19, 2019 Units:  Both    English   Metric
Daily Weekly Monthly Yearly Custom
  High: Low: Average:
Temperature: 66 °F /  18.9 °C °F /  -17.8 °C 60.1 °F /  15.6 °C
Dew Point: 63.3 °F /  17.4 °C °F /  -17.8 °C 57.3 °F /  14.1 °C
Humidity: 93% % 90%
Wind Speed: 16mph /  25.7km/h - 2.6mph /  4.2km/h
Wind Gust: 17mph /  27.4km/h - -
Wind- - SSW
Pressure: 29.91 in /  1012.8 hPa 0.00 in /  0 hPa -
Precipitation: 0.73 in /  18.54 mm    
Historical Graphs
 
 
Tabular Data for July 19, 2019
Time Temperature Dew Point Pressure Wind Wind Speed Wind Gust Humidity Rainfall Rate (Hourly) solar
00:04 56.7 °F /  13.7 °C 51.8 °F /  11 °C 29.91in /  1012.8hPa Calm   2mph /  3.2km/h 84% 0.00in /  0mm 0 W/m2
00:09 56.5 °F /  13.6 °C 51.6 °F /  10.9 °C 29.91in /  1012.8hPa NW 2mph /  3.2km/h 3mph /  4.8km/h 84% 0.00in /  0mm 0 W/m2
00:14 56.5 °F /  13.6 °C 52 °F /  11.1 °C 29.90in /  1012.4hPa NW 2mph /  3.2km/h 4mph /  6.4km/h 85% 0.00in /  0mm 0 W/m2
00:19 56.3 °F /  13.5 °C 51.8 °F /  11 °C 29.91in /  1012.8hPa NW 0.9mph /  1.4km/h 4mph /  6.4km/h 85% 0.00in /  0mm 0 W/m2
00:24 56.3 °F /  13.5 °C 51.8 °F /  11 °C 29.91in /  1012.8hPa NW 4mph /  6.4km/h 4mph /  6.4km/h 85% 0.00in /  0mm 0 W/m2
00:29 56.1 °F /  13.4 °C 51.6 °F /  10.9 °C 29.90in /  1012.4hPa NW 2mph /  3.2km/h 5mph /  8km/h 85% 0.00in /  0mm 0 W/m2
00:34 56.1 °F /  13.4 °C 51.6 °F /  10.9 °C 29.91in /  1012.8hPa NW 2mph /  3.2km/h 3mph /  4.8km/h 85% 0.00in /  0mm 0 W/m2
00:39 56.1 °F /  13.4 °C 51.6 °F /  10.9 °C 29.91in /  1012.8hPa Calm   2mph /  3.2km/h 85% 0.00in /  0mm 0 W/m2
00:44 55.9 °F /  13.3 °C 51.4 °F /  10.8 °C 29.91in /  1012.8hPa NW 2mph /  3.2km/h 3mph /  4.8km/h 85% 0.00in /  0mm 0 W/m2
00:49 55.9 °F /  13.3 °C 51.8 °F /  11 °C 29.91in /  1012.8hPa Calm   1mph /  1.6km/h 86% 0.00in /  0mm 0 W/m2
00:54 55.9 °F /  13.3 °C 51.8 °F /  11 °C 29.91in /  1012.8hPa Calm   2mph /  3.2km/h 86% 0.00in /  0mm 0 W/m2
00:59 55.9 °F /  13.3 °C 51.8 °F /  11 °C 29.90in /  1012.4hPa Calm     86% 0.00in /  0mm 0 W/m2
01:04 55.9 °F /  13.3 °C 51.8 °F /  11 °C 29.90in /  1012.4hPa Calm     86% 0.00in /  0mm 0 W/m2
01:09 55.9 °F /  13.3 °C 51.8 °F /  11 °C 29.90in /  1012.4hPa Calm   1mph /  1.6km/h 86% 0.00in /  0mm 0 W/m2
01:14 55.9 °F /  13.3 °C 51.8 °F /  11 °C 29.90in /  1012.4hPa Calm     86% 0.00in /  0mm 0 W/m2
01:19 55.8 °F /  13.2 °C 51.6 °F /  10.9 °C 29.90in /  1012.4hPa Calm     86% 0.00in /  0mm 0 W/m2
01:24 55.8 °F /  13.2 °C 51.6 °F /  10.9 °C 29.90in /  1012.4hPa NW 1mph /  1.6km/h 1mph /  1.6km/h 86% 0.00in /  0mm 0 W/m2
01:29 55.8 °F /  13.2 °C 51.6 °F /  10.9 °C 29.90in /  1012.4hPa Calm   1mph /  1.6km/h 86% 0.00in /  0mm 0 W/m2
01:34 55.8 °F /  13.2 °C 51.6 °F /  10.9 °C 29.90in /  1012.4hPa Calm     86% 0.00in /  0mm 0 W/m2
01:39 55.8 °F /  13.2 °C 52 °F /  11.1 °C 29.90in /  1012.4hPa Calm     87% 0.00in /  0mm 0 W/m2
01:44 55.8 °F /  13.2 °C 51.6 °F /  10.9 °C 29.90in /  1012.4hPa Calm     86% 0.00in /  0mm 0 W/m2
01:49 55.4 °F /  13 °C 51.3 °F /  10.7 °C 29.90in /  1012.4hPa NW 0.9mph /  1.4km/h 1mph /  1.6km/h 86% 0.00in /  0mm 0 W/m2
01:54 55.4 °F /  13 °C 51.6 °F /  10.9 °C 29.90in /  1012.4hPa NW 0.9mph /  1.4km/h 1mph /  1.6km/h 87% 0.00in /  0mm 0 W/m2
01:59 55.2 °F /  12.9 °C 51.4 °F /  10.8 °C 29.90in /  1012.4hPa Calm   2mph /  3.2km/h 87% 0.00in /  0mm 0 W/m2
02:04 55.4 °F /  13 °C 51.6 °F /  10.9 °C 29.90in /  1012.4hPa Calm   3mph /  4.8km/h 87% 0.00in /  0mm 0 W/m2
02:09 55.6 °F /  13.1 °C 51.8 °F /  11 °C 29.90in /  1012.4hPa Calm   2mph /  3.2km/h 87% 0.00in /  0mm 0 W/m2
02:14 55.4 °F /  13 °C 51.6 °F /  10.9 °C 29.90in /  1012.4hPa Calm     87% 0.00in /  0mm 0 W/m2
02:19 55.6 °F /  13.1 °C 51.8 °F /  11 °C 29.89in /  1012.1hPa Calm     87% 0.00in /  0mm 0 W/m2
02:24 55.6 °F /  13.1 °C 51.8 °F /  11 °C 29.89in /  1012.1hPa Calm     87% 0.00in /  0mm 0 W/m2
02:29 55.4 °F /  13 °C 51.6 °F /  10.9 °C 29.89in /  1012.1hPa NW 1mph /  1.6km/h 1mph /  1.6km/h 87% 0.00in /  0mm 0 W/m2
02:34 55.4 °F /  13 °C 51.6 °F /  10.9 °C 29.89in /  1012.1hPa Calm     87% 0.00in /  0mm 0 W/m2
02:39 55.4 °F /  13 °C 51.6 °F /  10.9 °C 29.88in /  1011.7hPa Calm     87% 0.00in /  0mm 0 W/m2
02:44 55.4 °F /  13 °C 51.6 °F /  10.9 °C 29.89in /  1012.1hPa Calm     87% 0.00in /  0mm 0 W/m2
02:49 55.4 °F /  13 °C 51.6 °F /  10.9 °C 29.89in /  1012.1hPa Calm     87% 0.00in /  0mm 0 W/m2
02:54 55.2 °F /  12.9 °C 51.4 °F /  10.8 °C 29.89in /  1012.1hPa Calm     87% 0.00in /  0mm 0 W/m2
02:59 55.2 °F /  12.9 °C 51.4 °F /  10.8 °C 29.89in /  1012.1hPa Calm   2mph /  3.2km/h 87% 0.00in /  0mm 0 W/m2
03:04 55 °F /  12.8 °C 51.3 °F /  10.7 °C 29.88in /  1011.7hPa Calm   2mph /  3.2km/h 87% 0.00in /  0mm 0 W/m2
03:09 55 °F /  12.8 °C 51.3 °F /  10.7 °C 29.88in /  1011.7hPa Calm   1mph /  1.6km/h 87% 0.00in /  0mm 0 W/m2
03:14 54.9 °F /  12.7 °C 51.1 °F /  10.6 °C 29.88in /  1011.7hPa Calm   1mph /  1.6km/h 87% 0.00in /  0mm 0 W/m2
03:19 54.9 °F /  12.7 °C 51.1 °F /  10.6 °C 29.89in /  1012.1hPa NW 2mph /  3.2km/h 3mph /  4.8km/h 87% 0.00in /  0mm 0 W/m2
03:24 54.9 °F /  12.7 °C 51.1 °F /  10.6 °C 29.89in /  1012.1hPa Calm   1mph /  1.6km/h 87% 0.00in /  0mm 0 W/m2
03:29 54.9 °F /  12.7 °C 51.1 °F /  10.6 °C 29.89in /  1012.1hPa NW 2mph /  3.2km/h 3mph /  4.8km/h 87% 0.00in /  0mm 0 W/m2
03:34 55 °F /  12.8 °C 51.3 °F /  10.7 °C 29.89in /  1012.1hPa Calm   3mph /  4.8km/h 87% 0.00in /  0mm 0 W/m2
03:39 55.2 °F /  12.9 °C 51.4 °F /  10.8 °C 29.89in /  1012.1hPa Calm     87% 0.00in /  0mm 0 W/m2
03:44 55.2 °F /  12.9 °C 51.4 °F /  10.8 °C 29.88in /  1011.7hPa NW 0.9mph /  1.4km/h 2mph /  3.2km/h 87% 0.00in /  0mm 0 W/m2
03:49 55.4 °F /  13 °C 51.6 °F /  10.9 °C 29.88in /  1011.7hPa Calm   3mph /  4.8km/h 87% 0.00in /  0mm 0 W/m2
03:54 55.6 °F /  13.1 °C 51.8 °F /  11 °C 29.88in /  1011.7hPa Calm     87% 0.00in /  0mm 0 W/m2
03:59 55.8 °F /  13.2 °C 52 °F /  11.1 °C 29.88in /  1011.7hPa Calm     87% 0.00in /  0mm 0 W/m2
04:04 55.8 °F /  13.2 °C 52 °F /  11.1 °C 29.87in /  1011.4hPa Calm     87% 0.00in /  0mm 0 W/m2
04:09 55.8 °F /  13.2 °C 52 °F /  11.1 °C 29.87in /  1011.4hPa Calm     87% 0.00in /  0mm 0 W/m2
04:14 55.9 °F /  13.3 °C 52.2 °F /  11.2 °C 29.88in /  1011.7hPa NW 0.9mph /  1.4km/h 1mph /  1.6km/h 87% 0.00in /  0mm 0 W/m2
04:19 55.9 °F /  13.3 °C 52.2 °F /  11.2 °C 29.88in /  1011.7hPa Calm     87% 0.00in /  0mm 0 W/m2
04:24 55.9 °F /  13.3 °C 52.2 °F /  11.2 °C 29.88in /  1011.7hPa Calm     87% 0.00in /  0mm 0 W/m2
04:29 55.9 °F /  13.3 °C 52.2 °F /  11.2 °C 29.87in /  1011.4hPa Calm     87% 0.00in /  0mm 0 W/m2
04:34 55.9 °F /  13.3 °C 52.2 °F /  11.2 °C 29.87in /  1011.4hPa Calm     87% 0.00in /  0mm 0 W/m2
04:39 55.9 °F /  13.3 °C 52.2 °F /  11.2 °C 29.88in /  1011.7hPa Calm     87% 0.00in /  0mm 0 W/m2
04:44 55.9 °F /  13.3 °C 52.2 °F /  11.2 °C 29.87in /  1011.4hPa Calm     87% 0.00in /  0mm 0 W/m2
04:49 56.1 °F /  13.4 °C 52.3 °F /  11.3 °C 29.87in /  1011.4hPa Calm     87% 0.00in /  0mm 0 W/m2
04:54 56.1 °F /  13.4 °C 52.3 °F /  11.3 °C 29.88in /  1011.7hPa Calm     87% 0.00in /  0mm 0 W/m2
04:59 56.1 °F /  13.4 °C 52.3 °F /  11.3 °C 29.88in /  1011.7hPa Calm     87% 0.00in /  0mm 0 W/m2
05:04 56.1 °F /  13.4 °C 52.3 °F /  11.3 °C 29.88in /  1011.7hPa Calm     87% 0.00in /  0mm 0 W/m2
05:09 56.1 °F /  13.4 °C 52.3 °F /  11.3 °C 29.88in /  1011.7hPa Calm     87% 0.00in /  0mm 0 W/m2
05:14 56.3 °F /  13.5 °C 52.5 °F /  11.4 °C 29.87in /  1011.4hPa Calm     87% 0.00in /  0mm 0 W/m2
05:19 56.5 °F /  13.6 °C 52.7 °F /  11.5 °C 29.87in /  1011.4hPa Calm     87% 0.00in /  0mm 0 W/m2
05:24 56.7 °F /  13.7 °C 52.9 °F /  11.6 °C 29.87in /  1011.4hPa Calm   1mph /  1.6km/h 87% 0.01in /  0.25mm 0 W/m2
05:29 56.7 °F /  13.7 °C 52.9 °F /  11.6 °C 29.87in /  1011.4hPa Calm     87% 0.01in /  0.25mm 0 W/m2
05:34 56.7 °F /  13.7 °C 52.9 °F /  11.6 °C 29.86in /  1011.1hPa Calm   1mph /  1.6km/h 87% 0.01in /  0.25mm 0 W/m2
05:39 56.7 °F /  13.7 °C 52.9 °F /  11.6 °C 29.86in /  1011.1hPa Calm     87% 0.01in /  0.25mm 0 W/m2
05:44 56.7 °F /  13.7 °C 52.9 °F /  11.6 °C 29.86in /  1011.1hPa NW 1mph /  1.6km/h 1mph /  1.6km/h 87% 0.02in /  0.51mm 7 W/m2
05:49 56.7 °F /  13.7 °C 53.1 °F /  11.7 °C 29.86in /  1011.1hPa Calm   2mph /  3.2km/h 88% 0.03in /  0.76mm 11 W/m2
05:54 56.7 °F /  13.7 °C 53.1 °F /  11.7 °C 29.86in /  1011.1hPa Calm   5mph /  8km/h 88% 0.03in /  0.76mm 9 W/m2
05:59 56.3 °F /  13.5 °C 52.9 °F /  11.6 °C 29.86in /  1011.1hPa Calm   4mph /  6.4km/h 88% 0.03in /  0.76mm 11 W/m2
06:04 56.3 °F /  13.5 °C 52.9 °F /  11.6 °C 29.85in /  1010.7hPa SSW 2mph /  3.2km/h 3mph /  4.8km/h 88% 0.03in /  0.76mm 9 W/m2
06:09 56.3 °F /  13.5 °C 52.9 °F /  11.6 °C 29.85in /  1010.7hPa Calm   1mph /  1.6km/h 88% 0.04in /  1.02mm 11 W/m2
06:14 56.3 °F /  13.5 °C 53.1 °F /  11.7 °C 29.85in /  1010.7hPa Calm   1mph /  1.6km/h 89% 0.04in /  1.02mm 14 W/m2
06:19 56.3 °F /  13.5 °C 53.1 °F /  11.7 °C 29.85in /  1010.7hPa SSW 2mph /  3.2km/h 2mph /  3.2km/h 89% 0.04in /  1.02mm 14 W/m2
06:24 56.1 °F /  13.4 °C 52.9 °F /  11.6 °C 29.86in /  1011.1hPa Calm   2mph /  3.2km/h 89% 0.02in /  0.51mm 16 W/m2
06:29 56.1 °F /  13.4 °C 52.9 °F /  11.6 °C 29.86in /  1011.1hPa SSW 2mph /  3.2km/h 3mph /  4.8km/h 89% 0.02in /  0.51mm 12 W/m2
06:34 55.9 °F /  13.3 °C 52.7 °F /  11.5 °C 29.86in /  1011.1hPa Calm   2mph /  3.2km/h 89% 0.02in /  0.51mm 11 W/m2
06:39 56.1 °F /  13.4 °C 52.9 °F /  11.6 °C 29.86in /  1011.1hPa Calm     89% 0.03in /  0.76mm 9 W/m2
06:44 56.1 °F /  13.4 °C 52.9 °F /  11.6 °C 29.85in /  1010.7hPa SSE 0.9mph /  1.4km/h 2mph /  3.2km/h 89% 0.02in /  0.51mm 14 W/m2
06:49 56.1 °F /  13.4 °C 52.9 °F /  11.6 °C 29.85in /  1010.7hPa Calm   3mph /  4.8km/h 89% 0.02in /  0.51mm 11 W/m2
06:54 56.3 °F /  13.5 °C 53.4 °F /  11.9 °C 29.85in /  1010.7hPa Calm   2mph /  3.2km/h 90% 0.03in /  0.76mm 12 W/m2
06:59 56.3 °F /  13.5 °C 53.4 °F /  11.9 °C 29.85in /  1010.7hPa Calm   1mph /  1.6km/h 90% 0.03in /  0.76mm 12 W/m2
07:04 56.3 °F /  13.5 °C 53.4 °F /  11.9 °C 29.85in /  1010.7hPa SSE 0.9mph /  1.4km/h 4mph /  6.4km/h 90% 0.04in /  1.02mm 16 W/m2
07:09 56.3 °F /  13.5 °C 53.4 °F /  11.9 °C 29.85in /  1010.7hPa SE 2mph /  3.2km/h 4mph /  6.4km/h 90% 0.03in /  0.76mm 19 W/m2
07:14 56.3 °F /  13.5 °C 53.4 °F /  11.9 °C 29.85in /  1010.7hPa Calm   6mph /  9.7km/h 90% 0.03in /  0.76mm 25 W/m2
07:19 56.5 °F /  13.6 °C 53.6 °F /  12 °C 29.85in /  1010.7hPa ESE 4mph /  6.4km/h 4mph /  6.4km/h 90% 0.03in /  0.76mm 37 W/m2
07:24 56.5 °F /  13.6 °C 53.6 °F /  12 °C 29.85in /  1010.7hPa ESE 0.9mph /  1.4km/h 3mph /  4.8km/h 90% 0.03in /  0.76mm 39 W/m2
07:29 56.5 °F /  13.6 °C 54 °F /  12.2 °C 29.84in /  1010.4hPa Calm   3mph /  4.8km/h 91% 0.03in /  0.76mm 39 W/m2
07:34 56.5 °F /  13.6 °C 54 °F /  12.2 °C 29.84in /  1010.4hPa Calm   4mph /  6.4km/h 91% 0.03in /  0.76mm 44 W/m2
07:39 56.7 °F /  13.7 °C 54.1 °F /  12.3 °C 29.84in /  1010.4hPa ESE 2mph /  3.2km/h 3mph /  4.8km/h 91% 0.02in /  0.51mm 40 W/m2
07:44 56.7 °F /  13.7 °C 54.1 °F /  12.3 °C 29.84in /  1010.4hPa ESE 6mph /  9.7km/h 6mph /  9.7km/h 91% 0.02in /  0.51mm 51 W/m2
07:49 56.8 °F /  13.8 °C 54.3 °F /  12.4 °C 29.84in /  1010.4hPa Calm   5mph /  8km/h 91% 0.02in /  0.51mm 56 W/m2
07:54 57 °F /  13.9 °C 54.5 °F /  12.5 °C 29.84in /  1010.4hPa ESE 2mph /  3.2km/h 3mph /  4.8km/h 91% 0.01in /  0.25mm 35 W/m2
07:59 57 °F /  13.9 °C 54.5 °F /  12.5 °C 29.83in /  1010hPa SSE 2mph /  3.2km/h 2mph /  3.2km/h 91% 0.01in /  0.25mm 39 W/m2
08:04 57.2 °F /  14 °C 54.9 °F /  12.7 °C 29.83in /  1010hPa SSE 0.9mph /  1.4km/h 3mph /  4.8km/h 92% 0.00in /  0mm 88 W/m2
08:09 57.6 °F /  14.2 °C 55.2 °F /  12.9 °C 29.83in /  1010hPa Calm   5mph /  8km/h 92% 0.00in /  0mm 60 W/m2
08:14 57.7 °F /  14.3 °C 55.4 °F /  13 °C 29.83in /  1010hPa SE 4.9mph /  7.9km/h 8mph /  12.9km/h 92% 0.00in /  0mm 53 W/m2
08:19 57.9 °F /  14.4 °C 55.6 °F /  13.1 °C 29.83in /  1010hPa SSE 2.9mph /  4.7km/h 5mph /  8km/h 92% 0.00in /  0mm 111 W/m2
08:24 58.3 °F /  14.6 °C 55.9 °F /  13.3 °C 29.83in /  1010hPa SSE 4mph /  6.4km/h 11mph /  17.7km/h 92% 0.00in /  0mm 123 W/m2
08:29 58.6 °F /  14.8 °C 56.3 °F /  13.5 °C 29.82in /  1009.7hPa South 6.9mph /  11.1km/h 9mph /  14.5km/h 92% 0.00in /  0mm 160 W/m2
08:34 58.6 °F /  14.8 °C 55.9 °F /  13.3 °C 29.82in /  1009.7hPa SSW 2mph /  3.2km/h 7mph /  11.3km/h 91% 0.00in /  0mm 77 W/m2
08:39 58.8 °F /  14.9 °C 56.1 °F /  13.4 °C 29.82in /  1009.7hPa SW 11mph /  17.7km/h 11mph /  17.7km/h 91% 0.00in /  0mm 54 W/m2
08:44 58.6 °F /  14.8 °C 55.9 °F /  13.3 °C 29.82in /  1009.7hPa South 4.9mph /  7.9km/h 8mph /  12.9km/h 91% 0.01in /  0.25mm 37 W/m2
08:49 58.5 °F /  14.7 °C 55.8 °F /  13.2 °C 29.83in /  1010hPa SSW 4mph /  6.4km/h 11mph /  17.7km/h 91% 0.02in /  0.51mm 33 W/m2
08:54 58.3 °F /  14.6 °C 55.6 °F /  13.1 °C 29.82in /  1009.7hPa SSW 12mph /  19.3km/h 12mph /  19.3km/h 91% 0.02in /  0.51mm 33 W/m2
08:59 58.3 °F /  14.6 °C 55.6 °F /  13.1 °C 29.82in /  1009.7hPa South 6mph /  9.7km/h 10mph /  16.1km/h 91% 0.04in /  1.02mm 33 W/m2
09:04 58.1 °F /  14.5 °C 55.4 °F /  13 °C 29.82in /  1009.7hPa SSE 11mph /  17.7km/h 11mph /  17.7km/h 91% 0.04in /  1.02mm 37 W/m2
09:09 57.9 °F /  14.4 °C 55.2 °F /  12.9 °C 29.82in /  1009.7hPa SSE 4mph /  6.4km/h 7mph /  11.3km/h 91% 0.05in /  1.27mm 23 W/m2
09:14 57.9 °F /  14.4 °C 55.2 °F /  12.9 °C 29.83in /  1010hPa South 6mph /  9.7km/h 8mph /  12.9km/h 91% 0.08in /  2.03mm 19 W/m2
09:19 57.9 °F /  14.4 °C 55.2 °F /  12.9 °C 29.83in /  1010hPa Calm   6mph /  9.7km/h 91% 0.11in /  2.79mm 19 W/m2
09:24 57.7 °F /  14.3 °C 55.2 °F /  12.9 °C 29.83in /  1010hPa SSW 4.9mph /  7.9km/h 9mph /  14.5km/h 91% 0.17in /  4.32mm 19 W/m2
09:29 57.7 °F /  14.3 °C 55.2 °F /  12.9 °C 29.83in /  1010hPa SSW 4mph /  6.4km/h 7mph /  11.3km/h 91% 0.21in /  5.33mm 16 W/m2
09:34 57.7 °F /  14.3 °C 55.4 °F /  13 °C 29.83in /  1010hPa South 2mph /  3.2km/h 6mph /  9.7km/h 92% 0.24in /  6.1mm 19 W/m2
09:39 57.7 °F /  14.3 °C 55.4 °F /  13 °C 29.82in /  1009.7hPa SSW 0.9mph /  1.4km/h 15mph /  24.1km/h 92% 0.28in /  7.11mm 33 W/m2
09:44 57.7 °F /  14.3 °C 55.4 °F /  13 °C 29.82in /  1009.7hPa SSE 6mph /  9.7km/h 17mph /  27.4km/h 92% 0.32in /  8.13mm 58 W/m2
09:49 57.7 °F /  14.3 °C 55.4 °F /  13 °C 29.81in /  1009.4hPa SSW 4.9mph /  7.9km/h 11mph /  17.7km/h 92% 0.33in /  8.38mm 97 W/m2
09:54 57.9 °F /  14.4 °C 55.6 °F /  13.1 °C 29.81in /  1009.4hPa South 6.9mph /  11.1km/h 17mph /  27.4km/h 92% 0.32in /  8.13mm 120 W/m2
09:59 57.9 °F /  14.4 °C 55.9 °F /  13.3 °C 29.82in /  1009.7hPa South 0.9mph /  1.4km/h 9mph /  14.5km/h 93% 0.31in /  7.87mm 128 W/m2
10:04 58.3 °F /  14.6 °C 56.3 °F /  13.5 °C 29.81in /  1009.4hPa SSE 4.9mph /  7.9km/h 8mph /  12.9km/h 93% 0.32in /  8.13mm 190 W/m2
10:09 58.5 °F /  14.7 °C 56.5 °F /  13.6 °C 29.81in /  1009.4hPa South 0.9mph /  1.4km/h 11mph /  17.7km/h 93% 0.30in /  7.62mm 309 W/m2
10:14 58.8 °F /  14.9 °C 56.8 °F /  13.8 °C 29.81in /  1009.4hPa SSW 8.1mph /  13km/h 14mph /  22.5km/h 93% 0.28in /  7.11mm 341 W/m2
10:19 59.4 °F /  15.2 °C 57.4 °F /  14.1 °C 29.81in /  1009.4hPa SSW 0.9mph /  1.4km/h 8mph /  12.9km/h 93% 0.24in /  6.1mm 220 W/m2
10:24 59.4 °F /  15.2 °C 57.4 °F /  14.1 °C 29.81in /  1009.4hPa SSW 8.1mph /  13km/h 12mph /  19.3km/h 93% 0.19in /  4.83mm 178 W/m2
10:29 59.5 °F /  15.3 °C 57.6 °F /  14.2 °C 29.81in /  1009.4hPa SSW 4.9mph /  7.9km/h 8mph /  12.9km/h 93% 0.15in /  3.81mm 190 W/m2
10:34 59.5 °F /  15.3 °C 57.6 °F /  14.2 °C 29.81in /  1009.4hPa South 4.9mph /  7.9km/h 11mph /  17.7km/h 93% 0.11in /  2.79mm 149 W/m2
10:39 59.7 °F /  15.4 °C 57.7 °F /  14.3 °C 29.81in /  1009.4hPa South 4mph /  6.4km/h 8mph /  12.9km/h 93% 0.06in /  1.52mm 128 W/m2
10:44 59.7 °F /  15.4 °C 57.7 °F /  14.3 °C 29.81in /  1009.4hPa SSE 6.9mph /  11.1km/h 11mph /  17.7km/h 93% 0.02in /  0.51mm 114 W/m2
10:49 59.7 °F /  15.4 °C 57.7 °F /  14.3 °C 29.81in /  1009.4hPa SSW 4.9mph /  7.9km/h 11mph /  17.7km/h 93% 0.02in /  0.51mm 109 W/m2
10:54 59.7 °F /  15.4 °C 57.7 °F /  14.3 °C 29.80in /  1009hPa SSW 2.9mph /  4.7km/h 7mph /  11.3km/h 93% 0.01in /  0.25mm 153 W/m2
10:59 59.7 °F /  15.4 °C 57.7 °F /  14.3 °C 29.80in /  1009hPa SSE 2mph /  3.2km/h 12mph /  19.3km/h 93% 0.02in /  0.51mm 109 W/m2
11:04 59.7 °F /  15.4 °C 57.7 °F /  14.3 °C 29.80in /  1009hPa Calm   4mph /  6.4km/h 93% 0.02in /  0.51mm 86 W/m2
11:09 59.7 °F /  15.4 °C 57.7 °F /  14.3 °C 29.80in /  1009hPa SSE 10mph /  16.1km/h 10mph /  16.1km/h 93% 0.03in /  0.76mm 74 W/m2
11:14 59.9 °F /  15.5 °C 57.9 °F /  14.4 °C 29.80in /  1009hPa South 2mph /  3.2km/h 5mph /  8km/h 93% 0.04in /  1.02mm 93 W/m2
11:19 60.1 °F /  15.6 °C 58.1 °F /  14.5 °C 29.80in /  1009hPa Calm   5mph /  8km/h 93% 0.05in /  1.27mm 95 W/m2
11:24 60.3 °F /  15.7 °C 58.3 °F /  14.6 °C 29.80in /  1009hPa NW 6.9mph /  11.1km/h 9mph /  14.5km/h 93% 0.05in /  1.27mm 125 W/m2
11:29 60.4 °F /  15.8 °C 58.5 °F /  14.7 °C 29.80in /  1009hPa South 4mph /  6.4km/h 6mph /  9.7km/h 93% 0.05in /  1.27mm 105 W/m2
11:34 60.4 °F /  15.8 °C 58.5 °F /  14.7 °C 29.80in /  1009hPa South 2mph /  3.2km/h 9mph /  14.5km/h 93% 0.05in /  1.27mm 123 W/m2
11:39 60.6 °F /  15.9 °C 58.6 °F /  14.8 °C 29.79in /  1008.7hPa SSE 6mph /  9.7km/h 7mph /  11.3km/h 93% 0.05in /  1.27mm 188 W/m2
11:44 60.8 °F /  16 °C 58.8 °F /  14.9 °C 29.79in /  1008.7hPa SSE 6mph /  9.7km/h 7mph /  11.3km/h 93% 0.05in /  1.27mm 141 W/m2
11:49 61 °F /  16.1 °C 59 °F /  15 °C 29.79in /  1008.7hPa South 8.9mph /  14.3km/h 10mph /  16.1km/h 93% 0.05in /  1.27mm 134 W/m2
11:54 61.3 °F /  16.3 °C 59.4 °F /  15.2 °C 29.79in /  1008.7hPa South 8.1mph /  13km/h 10mph /  16.1km/h 93% 0.05in /  1.27mm 137 W/m2
11:59 61.3 °F /  16.3 °C 59.4 °F /  15.2 °C 29.78in /  1008.4hPa South 4.9mph /  7.9km/h 8mph /  12.9km/h 93% 0.03in /  0.76mm 171 W/m2
12:04 61.7 °F /  16.5 °C 59.7 °F /  15.4 °C 29.78in /  1008.4hPa South 2.9mph /  4.7km/h 6mph /  9.7km/h 93% 0.03in /  0.76mm 185 W/m2
12:09 61.9 °F /  16.6 °C 59.9 °F /  15.5 °C 29.79in /  1008.7hPa SSE 2.9mph /  4.7km/h 9mph /  14.5km/h 93% 0.02in /  0.51mm 174 W/m2
12:14 62.2 °F /  16.8 °C 60.3 °F /  15.7 °C 29.78in /  1008.4hPa South 2.9mph /  4.7km/h 10mph /  16.1km/h 93% 0.02in /  0.51mm 204 W/m2
12:19 62.4 °F /  16.9 °C 60.4 °F /  15.8 °C 29.79in /  1008.7hPa Calm   7mph /  11.3km/h 93% 0.00in /  0mm 155 W/m2
12:24 62.8 °F /  17.1 °C 60.8 °F /  16 °C 29.78in /  1008.4hPa SSW 13mph /  20.9km/h 13mph /  20.9km/h 93% 0.00in /  0mm 120 W/m2
12:29 63 °F /  17.2 °C 61 °F /  16.1 °C 29.78in /  1008.4hPa South 10.1mph /  16.3km/h 12mph /  19.3km/h 93% 0.00in /  0mm 153 W/m2
12:34 63.3 °F /  17.4 °C 61.3 °F /  16.3 °C 29.78in /  1008.4hPa South 6mph /  9.7km/h 10mph /  16.1km/h 93% 0.00in /  0mm 297 W/m2
12:39 63.5 °F /  17.5 °C 61.5 °F /  16.4 °C 29.78in /  1008.4hPa SSW 2mph /  3.2km/h 11mph /  17.7km/h 93% 0.00in /  0mm 294 W/m2
12:44 64 °F /  17.8 °C 62.1 °F /  16.7 °C 29.78in /  1008.4hPa SSW 2.9mph /  4.7km/h 8mph /  12.9km/h 93% 0.00in /  0mm 408 W/m2
12:49 64.4 °F /  18 °C 62.4 °F /  16.9 °C 29.78in /  1008.4hPa SSW 4.9mph /  7.9km/h 9mph /  14.5km/h 93% 0.00in /  0mm 448 W/m2
12:54 64.8 °F /  18.2 °C 62.6 °F /  17 °C 29.78in /  1008.4hPa SW 10.1mph /  16.3km/h 10mph /  16.1km/h 93% 0.00in /  0mm 415 W/m2
12:59 64.6 °F /  18.1 °C 62.4 °F /  16.9 °C 29.78in /  1008.4hPa SW 6mph /  9.7km/h 13mph /  20.9km/h 93% 0.00in /  0mm 204 W/m2
13:04 64.4 °F /  18 °C 62.1 °F /  16.7 °C 29.78in /  1008.4hPa SSW 6mph /  9.7km/h 16mph /  25.7km/h 92% 0.00in /  0mm 274 W/m2
13:09 64.8 °F /  18.2 °C 62.4 °F /  16.9 °C 29.78in /  1008.4hPa South 6.9mph /  11.1km/h 10mph /  16.1km/h 92% 0.00in /  0mm 422 W/m2
13:14 65.3 °F /  18.5 °C 63 °F /  17.2 °C 29.78in /  1008.4hPa SW 12.1mph /  19.5km/h 13mph /  20.9km/h 92% 0.00in /  0mm 471 W/m2
13:19 65.7 °F /  18.7 °C 63.3 °F /  17.4 °C 29.78in /  1008.4hPa SSW 0.9mph /  1.4km/h 13mph /  20.9km/h 92% 0.00in /  0mm 357 W/m2
13:24 65.8 °F /  18.8 °C 63.1 °F /  17.3 °C 29.78in /  1008.4hPa South 4mph /  6.4km/h 12mph /  19.3km/h 91% 0.00in /  0mm 236 W/m2
13:29 65.7 °F /  18.7 °C 63 °F /  17.2 °C 29.78in /  1008.4hPa SSW 4.9mph /  7.9km/h 10mph /  16.1km/h 91% 0.00in /  0mm 359 W/m2
13:34 65.7 °F /  18.7 °C 62.6 °F /  17 °C 29.78in /  1008.4hPa SW 6.9mph /  11.1km/h 10mph /  16.1km/h 90% 0.00in /  0mm 176 W/m2
13:39 65.7 °F /  18.7 °C 62.6 °F /  17 °C 29.78in /  1008.4hPa SSW 6mph /  9.7km/h 15mph /  24.1km/h 90% 0.00in /  0mm 134 W/m2
13:44 65.7 °F /  18.7 °C 62.6 °F /  17 °C 29.78in /  1008.4hPa SSW 2mph /  3.2km/h 8mph /  12.9km/h 90% 0.00in /  0mm 98 W/m2
13:49 65.7 °F /  18.7 °C 62.6 °F /  17 °C 29.78in /  1008.4hPa SW 8.9mph /  14.3km/h 9mph /  14.5km/h 90% 0.00in /  0mm 183 W/m2
13:54 65.7 °F /  18.7 °C 62.6 °F /  17 °C 29.77in /  1008hPa SW 4mph /  6.4km/h 9mph /  14.5km/h 90% 0.00in /  0mm 399 W/m2
13:59 65.8 °F /  18.8 °C 62.8 °F /  17.1 °C 29.77in /  1008hPa SW 2mph /  3.2km/h 9mph /  14.5km/h 90% 0.00in /  0mm 167 W/m2
14:04 65.8 °F /  18.8 °C 62.8 °F /  17.1 °C 29.78in /  1008.4hPa SSW 6mph /  9.7km/h 11mph /  17.7km/h 90% 0.00in /  0mm 151 W/m2
14:09 65.8 °F /  18.8 °C 62.8 °F /  17.1 °C 29.77in /  1008hPa SSW 4.9mph /  7.9km/h 16mph /  25.7km/h 90% 0.00in /  0mm 178 W/m2
14:14 65.8 °F /  18.8 °C 62.4 °F /  16.9 °C 29.77in /  1008hPa WSW 4.9mph /  7.9km/h 11mph /  17.7km/h 89% 0.00in /  0mm 77 W/m2
14:19 65.8 °F /  18.8 °C 62.4 °F /  16.9 °C 29.77in /  1008hPa South 4mph /  6.4km/h 15mph /  24.1km/h 89% 0.00in /  0mm 74 W/m2
14:24 65.8 °F /  18.8 °C 62.4 °F /  16.9 °C 29.77in /  1008hPa SSW 4.9mph /  7.9km/h 12mph /  19.3km/h 89% 0.00in /  0mm 123 W/m2
14:29 66 °F /  18.9 °C 62.6 °F /  17 °C 29.77in /  1008hPa SW 6mph /  9.7km/h 10mph /  16.1km/h 89% 0.00in /  0mm 158 W/m2
14:34 65.8 °F /  18.8 °C 62.4 °F /  16.9 °C 29.77in /  1008hPa SW 6.9mph /  11.1km/h 14mph /  22.5km/h 89% 0.00in /  0mm 156 W/m2
14:39 66 °F /  18.9 °C 62.6 °F /  17 °C 29.77in /  1008hPa South 16mph /  25.7km/h 16mph /  25.7km/h 89% 0.00in /  0mm 163 W/m2
14:44 65.8 °F /  18.8 °C 62.4 °F /  16.9 °C 29.77in /  1008hPa South 2mph /  3.2km/h 9mph /  14.5km/h 89% 0.01in /  0.25mm 246 W/m2
14:49 65.8 °F /  18.8 °C 62.8 °F /  17.1 °C 29.78in /  1008.4hPa SSW 12mph /  19.3km/h 12mph /  19.3km/h 90% 0.02in /  0.51mm 148 W/m2
14:54 65.5 °F /  18.6 °C 62.4 °F /  16.9 °C 29.77in /  1008hPa SW 4.9mph /  7.9km/h 10mph /  16.1km/h 90% 0.02in /  0.51mm 146 W/m2
14:59 65.3 °F /  18.5 °C 62.2 °F /  16.8 °C 29.77in /  1008hPa South 6mph /  9.7km/h 9mph /  14.5km/h 90% 0.02in /  0.51mm 105 W/m2
15:04 65.3 °F /  18.5 °C 62.2 °F /  16.8 °C 29.78in /  1008.4hPa SSW 2.9mph /  4.7km/h 12mph /  19.3km/h 90% 0.03in /  0.76mm 104 W/m2
15:09 65.3 °F /  18.5 °C 62.2 °F /  16.8 °C 29.78in /  1008.4hPa SW 2.9mph /  4.7km/h 8mph /  12.9km/h 90% 0.03in /  0.76mm 163 W/m2
15:14 65.3 °F /  18.5 °C 62.2 °F /  16.8 °C 29.78in /  1008.4hPa SW 0.9mph /  1.4km/h 7mph /  11.3km/h 90% 0.04in /  1.02mm 158 W/m2
15:19 65.5 °F /  18.6 °C 62.4 °F /  16.9 °C 29.78in /  1008.4hPa SSW 2.9mph /  4.7km/h 5mph /  8km/h 90% 0.04in /  1.02mm 84 W/m2
15:24 65.5 °F /  18.6 °C 62.4 °F /  16.9 °C 29.78in /  1008.4hPa South 6mph /  9.7km/h 10mph /  16.1km/h 90% 0.04in /  1.02mm 65 W/m2
15:29 65.5 °F /  18.6 °C 62.4 °F /  16.9 °C 29.78in /  1008.4hPa SSW 2.9mph /  4.7km/h 7mph /  11.3km/h 90% 0.04in /  1.02mm 90 W/m2
15:34 65.5 °F /  18.6 °C 62.4 °F /  16.9 °C 29.78in /  1008.4hPa SW 6mph /  9.7km/h 10mph /  16.1km/h 90% 0.04in /  1.02mm 134 W/m2
15:39 65.7 °F /  18.7 °C 62.6 °F /  17 °C 29.78in /  1008.4hPa SW 2.9mph /  4.7km/h 7mph /  11.3km/h 90% 0.02in /  0.51mm 79 W/m2
15:44 65.5 °F /  18.6 °C 62.8 °F /  17.1 °C 29.78in /  1008.4hPa SW 12mph /  19.3km/h 12mph /  19.3km/h 91% 0.02in /  0.51mm 74 W/m2
15:49 65.3 °F /  18.5 °C 62.2 °F /  16.8 °C 29.78in /  1008.4hPa SW 2.9mph /  4.7km/h 13mph /  20.9km/h 90% 0.02in /  0.51mm 72 W/m2
15:54 65.3 °F /  18.5 °C 62.6 °F /  17 °C 29.78in /  1008.4hPa SSW 4mph /  6.4km/h 11mph /  17.7km/h 91% 0.02in /  0.51mm 62 W/m2
15:59 65.3 °F /  18.5 °C 62.6 °F /  17 °C 29.78in /  1008.4hPa SSW 4mph /  6.4km/h 9mph /  14.5km/h 91% 0.02in /  0.51mm 79 W/m2
16:04 65.1 °F /  18.4 °C 62.4 °F /  16.9 °C 29.78in /  1008.4hPa SW 11mph /  17.7km/h 12mph /  19.3km/h 91% 0.01in /  0.25mm 134 W/m2
16:09 65.1 °F /  18.4 °C 62.4 °F /  16.9 °C 29.78in /  1008.4hPa SW 2.9mph /  4.7km/h 8mph /  12.9km/h 91% 0.01in /  0.25mm 102 W/m2
16:14 64.9 °F /  18.3 °C 62.2 °F /  16.8 °C 29.78in /  1008.4hPa SW 6mph /  9.7km/h 8mph /  12.9km/h 91% 0.00in /  0mm 81 W/m2
16:19 64.9 °F /  18.3 °C 62.2 °F /  16.8 °C 29.78in /  1008.4hPa SW 4.9mph /  7.9km/h 11mph /  17.7km/h 91% 0.01in /  0.25mm 81 W/m2
16:24 °F /  -17.8 °C °F /  -17.8 °C 0.00in /  0hPa Calm     % 0.00in /  0mm W/m2
16:29 64.9 °F /  18.3 °C 62.2 °F /  16.8 °C 29.77in /  1008hPa SSW 0.9mph /  1.4km/h 7mph /  11.3km/h 91% 0.01in /  0.25mm 125 W/m2
16:34 64.9 °F /  18.3 °C 62.2 °F /  16.8 °C 29.76in /  1007.7hPa SSW 0.9mph /  1.4km/h 10mph /  16.1km/h 91% 0.01in /  0.25mm 123 W/m2
16:39 64.9 °F /  18.3 °C 62.2 °F /  16.8 °C 29.76in /  1007.7hPa SSW 6mph /  9.7km/h 9mph /  14.5km/h 91% 0.01in /  0.25mm 125 W/m2
16:44 64.9 °F /  18.3 °C 62.2 °F /  16.8 °C 29.76in /  1007.7hPa SW 10mph /  16.1km/h 10mph /  16.1km/h 91% 0.02in /  0.51mm 79 W/m2
16:49 64.9 °F /  18.3 °C 62.2 °F /  16.8 °C 29.76in /  1007.7hPa WSW 2.9mph /  4.7km/h 9mph /  14.5km/h 91% 0.02in /  0.51mm 97 W/m2
16:54 65.1 °F /  18.4 °C 62.4 °F /  16.9 °C 29.77in /  1008hPa WSW 0.9mph /  1.4km/h 3mph /  4.8km/h 91% 0.02in /  0.51mm 105 W/m2
16:59 64.8 °F /  18.2 °C 62.1 °F /  16.7 °C 29.76in /  1007.7hPa SSW 4.9mph /  7.9km/h 10mph /  16.1km/h 91% 0.02in /  0.51mm 114 W/m2
17:04 64.8 °F /  18.2 °C 62.1 °F /  16.7 °C 29.76in /  1007.7hPa SSW 4mph /  6.4km/h 7mph /  11.3km/h 91% 0.02in /  0.51mm 60 W/m2
17:09 64.8 °F /  18.2 °C 62.1 °F /  16.7 °C 29.76in /  1007.7hPa SSW 4.9mph /  7.9km/h 6mph /  9.7km/h 91% 0.02in /  0.51mm 56 W/m2
17:14 64.6 °F /  18.1 °C 61.9 °F /  16.6 °C 29.76in /  1007.7hPa SW 6.9mph /  11.1km/h 8mph /  12.9km/h 91% 0.02in /  0.51mm 40 W/m2
17:19 64.4 °F /  18 °C 61.7 °F /  16.5 °C 29.76in /  1007.7hPa SSW 10mph /  16.1km/h 10mph /  16.1km/h 91% 0.01in /  0.25mm 26 W/m2
17:24 64.4 °F /  18 °C 61.7 °F /  16.5 °C 29.76in /  1007.7hPa SW 4mph /  6.4km/h 7mph /  11.3km/h 91% 0.03in /  0.76mm 19 W/m2
17:29 64 °F /  17.8 °C 61.7 °F /  16.5 °C 29.76in /  1007.7hPa SSW 2mph /  3.2km/h 7mph /  11.3km/h 92% 0.07in /  1.78mm 44 W/m2
17:34 64 °F /  17.8 °C 61.7 °F /  16.5 °C 29.76in /  1007.7hPa SW 9mph /  14.5km/h 9mph /  14.5km/h 92% 0.11in /  2.79mm 46 W/m2
17:39 63.9 °F /  17.7 °C 61.5 °F /  16.4 °C 29.76in /  1007.7hPa SW 4.9mph /  7.9km/h 6mph /  9.7km/h 92% 0.11in /  2.79mm 53 W/m2
17:44 63.9 °F /  17.7 °C 61.5 °F /  16.4 °C 29.76in /  1007.7hPa WSW 0.9mph /  1.4km/h 5mph /  8km/h 92% 0.12in /  3.05mm 51 W/m2
17:49 63.9 °F /  17.7 °C 61.5 °F /  16.4 °C 29.76in /  1007.7hPa WSW 0.9mph /  1.4km/h 6mph /  9.7km/h 92% 0.12in /  3.05mm 42 W/m2
17:54 63.7 °F /  17.6 °C 61.3 °F /  16.3 °C 29.75in /  1007.3hPa WSW 4.9mph /  7.9km/h 5mph /  8km/h 92% 0.13in /  3.3mm 40 W/m2
17:59 63.7 °F /  17.6 °C 61.7 °F /  16.5 °C 29.75in /  1007.3hPa WSW 4mph /  6.4km/h 7mph /  11.3km/h 93% 0.13in /  3.3mm 60 W/m2
18:04 63.7 °F /  17.6 °C 61.7 °F /  16.5 °C 29.75in /  1007.3hPa WSW 0.9mph /  1.4km/h 3mph /  4.8km/h 93% 0.14in /  3.56mm 51 W/m2
18:09 63.7 °F /  17.6 °C 61.7 °F /  16.5 °C 29.75in /  1007.3hPa WSW 0.9mph /  1.4km/h 5mph /  8km/h 93% 0.14in /  3.56mm 63 W/m2
18:14 63.9 °F /  17.7 °C 61.9 °F /  16.6 °C 29.75in /  1007.3hPa WSW 2.9mph /  4.7km/h 5mph /  8km/h 93% 0.15in /  3.81mm 49 W/m2
18:19 63.7 °F /  17.6 °C 61.7 °F /  16.5 °C 29.76in /  1007.7hPa WSW 4.9mph /  7.9km/h 5mph /  8km/h 93% 0.15in /  3.81mm 32 W/m2
18:23 63.5 °F /  17.5 °C 61.5 °F /  16.4 °C 29.76in /  1007.7hPa SW 4mph /  6.4km/h 5mph /  8km/h 93% 0.14in /  3.56mm 33 W/m2
18:29 63.3 °F /  17.4 °C 61.3 °F /  16.3 °C 29.76in /  1007.7hPa SW 6.9mph /  11.1km/h 7mph /  11.3km/h 93% 0.09in /  2.29mm 51 W/m2
18:34 63.3 °F /  17.4 °C 61.3 °F /  16.3 °C 29.76in /  1007.7hPa Calm   5mph /  8km/h 93% 0.06in /  1.52mm 69 W/m2
18:39 63.1 °F /  17.3 °C 61.2 °F /  16.2 °C 29.76in /  1007.7hPa SW 6.9mph /  11.1km/h 9mph /  14.5km/h 93% 0.06in /  1.52mm 63 W/m2
18:44 63.3 °F /  17.4 °C 61.3 °F /  16.3 °C 29.76in /  1007.7hPa SW 0.9mph /  1.4km/h 7mph /  11.3km/h 93% 0.06in /  1.52mm 26 W/m2
18:49 63.1 °F /  17.3 °C 61.2 °F /  16.2 °C 29.76in /  1007.7hPa WSW 4mph /  6.4km/h 6mph /  9.7km/h 93% 0.06in /  1.52mm 21 W/m2
18:54 63.1 °F /  17.3 °C 61.2 °F /  16.2 °C 29.76in /  1007.7hPa WSW 2.9mph /  4.7km/h 6mph /  9.7km/h 93% 0.04in /  1.02mm 44 W/m2
18:59 63.3 °F /  17.4 °C 61.3 °F /  16.3 °C 29.76in /  1007.7hPa WSW 2mph /  3.2km/h 2mph /  3.2km/h 93% 0.04in /  1.02mm 32 W/m2
19:04 63.3 °F /  17.4 °C 61.3 °F /  16.3 °C 29.76in /  1007.7hPa WSW 4mph /  6.4km/h 6mph /  9.7km/h 93% 0.04in /  1.02mm 40 W/m2
19:09 63.1 °F /  17.3 °C 61.2 °F /  16.2 °C 29.76in /  1007.7hPa WSW 2mph /  3.2km/h 4mph /  6.4km/h 93% 0.03in /  0.76mm 42 W/m2
19:14 63.1 °F /  17.3 °C 61.2 °F /  16.2 °C 29.76in /  1007.7hPa WSW 0.9mph /  1.4km/h 4mph /  6.4km/h 93% 0.03in /  0.76mm 44 W/m2
19:19 63.1 °F /  17.3 °C 61.2 °F /  16.2 °C 29.76in /  1007.7hPa WSW 0.9mph /  1.4km/h 4mph /  6.4km/h 93% 0.02in /  0.51mm 28 W/m2
19:24 63.3 °F /  17.4 °C 61.3 °F /  16.3 °C 29.75in /  1007.3hPa Calm   3mph /  4.8km/h 93% 0.02in /  0.51mm 26 W/m2
19:29 63 °F /  17.2 °C 61 °F /  16.1 °C 29.75in /  1007.3hPa WSW 0.9mph /  1.4km/h 5mph /  8km/h 93% 0.01in /  0.25mm 23 W/m2
19:34 63 °F /  17.2 °C 61 °F /  16.1 °C 29.75in /  1007.3hPa Calm   3mph /  4.8km/h 93% 0.00in /  0mm 12 W/m2
19:39 63.1 °F /  17.3 °C 61.2 °F /  16.2 °C 29.76in /  1007.7hPa WSW 2.9mph /  4.7km/h 3mph /  4.8km/h 93% 0.00in /  0mm 11 W/m2
19:44 63 °F /  17.2 °C 61 °F /  16.1 °C 29.75in /  1007.3hPa Calm     93% 0.00in /  0mm 9 W/m2
19:49 63 °F /  17.2 °C 61 °F /  16.1 °C 29.75in /  1007.3hPa WSW 2mph /  3.2km/h 3mph /  4.8km/h 93% 0.00in /  0mm 12 W/m2
19:54 63 °F /  17.2 °C 61 °F /  16.1 °C 29.75in /  1007.3hPa Calm   1mph /  1.6km/h 93% 0.01in /  0.25mm 19 W/m2
19:59 63 °F /  17.2 °C 61 °F /  16.1 °C 29.75in /  1007.3hPa Calm     93% 0.01in /  0.25mm 23 W/m2
20:04 63 °F /  17.2 °C 61 °F /  16.1 °C 29.75in /  1007.3hPa WSW 2.9mph /  4.7km/h 5mph /  8km/h 93% 0.01in /  0.25mm 18 W/m2
20:09 63 °F /  17.2 °C 61 °F /  16.1 °C 29.75in /  1007.3hPa SSW 0.9mph /  1.4km/h 9mph /  14.5km/h 93% 0.01in /  0.25mm 16 W/m2
20:14 63 °F /  17.2 °C 61 °F /  16.1 °C 29.75in /  1007.3hPa WSW 4mph /  6.4km/h 7mph /  11.3km/h 93% 0.02in /  0.51mm 12 W/m2
20:19 63 °F /  17.2 °C 61 °F /  16.1 °C 29.74in /  1007hPa SW 4.9mph /  7.9km/h 5mph /  8km/h 93% 0.02in /  0.51mm 14 W/m2
20:24 63 °F /  17.2 °C 61 °F /  16.1 °C 29.74in /  1007hPa Calm   2mph /  3.2km/h 93% 0.02in /  0.51mm 12 W/m2
20:29 63 °F /  17.2 °C 61 °F /  16.1 °C 29.74in /  1007hPa SSW 4mph /  6.4km/h 4mph /  6.4km/h 93% 0.02in /  0.51mm 19 W/m2
20:34 63 °F /  17.2 °C 61 °F /  16.1 °C 29.74in /  1007hPa WSW 2.9mph /  4.7km/h 3mph /  4.8km/h 93% 0.02in /  0.51mm 26 W/m2
20:39 62.8 °F /  17.1 °C 60.8 °F /  16 °C 29.74in /  1007hPa Calm   5mph /  8km/h 93% 0.02in /  0.51mm 21 W/m2
20:44 62.8 °F /  17.1 °C 60.8 °F /  16 °C 29.74in /  1007hPa SSW 0.9mph /  1.4km/h 1mph /  1.6km/h 93% 0.02in /  0.51mm 19 W/m2
20:49 62.8 °F /  17.1 °C 60.4 °F /  15.8 °C 29.74in /  1007hPa Calm   5mph /  8km/h 92% 0.02in /  0.51mm 9 W/m2
20:54 62.8 °F /  17.1 °C 60.4 °F /  15.8 °C 29.74in /  1007hPa SSW 2mph /  3.2km/h 7mph /  11.3km/h 92% 0.02in /  0.51mm 5 W/m2
20:59 62.6 °F /  17 °C 60.3 °F /  15.7 °C 29.74in /  1007hPa Calm   3mph /  4.8km/h 92% 0.02in /  0.51mm 0 W/m2
21:04 62.6 °F /  17 °C 60.3 °F /  15.7 °C 29.74in /  1007hPa SSW 2mph /  3.2km/h 3mph /  4.8km/h 92% 0.02in /  0.51mm 0 W/m2
21:09 62.6 °F /  17 °C 60.3 °F /  15.7 °C 29.74in /  1007hPa SSW 0.9mph /  1.4km/h 2mph /  3.2km/h 92% 0.02in /  0.51mm 0 W/m2
21:14 62.6 °F /  17 °C 60.3 °F /  15.7 °C 29.74in /  1007hPa Calm     92% 0.01in /  0.25mm 0 W/m2
21:19 62.6 °F /  17 °C 60.3 °F /  15.7 °C 29.74in /  1007hPa Calm   1mph /  1.6km/h 92% 0.01in /  0.25mm 0 W/m2
21:24 62.6 °F /  17 °C 60.3 °F /  15.7 °C 29.74in /  1007hPa SSW 0.9mph /  1.4km/h 5mph /  8km/h 92% 0.01in /  0.25mm 0 W/m2
21:29 62.6 °F /  17 °C 60.3 °F /  15.7 °C 29.74in /  1007hPa Calm   1mph /  1.6km/h 92% 0.00in /  0mm 0 W/m2
21:34 62.6 °F /  17 °C 60.3 °F /  15.7 °C 29.74in /  1007hPa Calm   1mph /  1.6km/h 92% 0.00in /  0mm 0 W/m2
21:39 62.4 °F /  16.9 °C 60.1 °F /  15.6 °C 29.75in /  1007.3hPa West 0.9mph /  1.4km/h 2mph /  3.2km/h 92% 0.00in /  0mm 0 W/m2
21:44 62.4 °F /  16.9 °C 60.4 °F /  15.8 °C 29.74in /  1007hPa West 3mph /  4.8km/h 3mph /  4.8km/h 93% 0.00in /  0mm 0 W/m2
21:49 62.4 °F /  16.9 °C 60.4 °F /  15.8 °C 29.74in /  1007hPa Calm   1mph /  1.6km/h 93% 0.00in /  0mm 0 W/m2
21:54 62.4 °F /  16.9 °C 60.4 °F /  15.8 °C 29.74in /  1007hPa Calm     93% 0.00in /  0mm 0 W/m2
21:59 62.4 °F /  16.9 °C 60.4 °F /  15.8 °C 29.74in /  1007hPa Calm   1mph /  1.6km/h 93% 0.00in /  0mm 0 W/m2
22:04 62.4 °F /  16.9 °C 60.4 °F /  15.8 °C 29.73in /  1006.7hPa Calm   2mph /  3.2km/h 93% 0.00in /  0mm 0 W/m2
22:09 62.2 °F /  16.8 °C 59.9 °F /  15.5 °C 29.73in /  1006.7hPa Calm   2mph /  3.2km/h 92% 0.00in /  0mm 0 W/m2
22:14 62.2 °F /  16.8 °C 59.9 °F /  15.5 °C 29.72in /  1006.3hPa Calm   1mph /  1.6km/h 92% 0.00in /  0mm 0 W/m2
22:19 62.2 °F /  16.8 °C 59.9 °F /  15.5 °C 29.72in /  1006.3hPa Calm     92% 0.00in /  0mm 0 W/m2
22:24 62.2 °F /  16.8 °C 59.9 °F /  15.5 °C 29.73in /  1006.7hPa West 0.9mph /  1.4km/h 1mph /  1.6km/h 92% 0.00in /  0mm 0 W/m2
22:29 62.1 °F /  16.7 °C 59.7 °F /  15.4 °C 29.72in /  1006.3hPa Calm     92% 0.00in /  0mm 0 W/m2
22:34 62.1 °F /  16.7 °C 59.7 °F /  15.4 °C 29.72in /  1006.3hPa Calm     92% 0.00in /  0mm 0 W/m2
22:39 62.2 °F /  16.8 °C 59.9 °F /  15.5 °C 29.72in /  1006.3hPa Calm     92% 0.00in /  0mm 0 W/m2
22:44 62.2 °F /  16.8 °C 59.9 °F /  15.5 °C 29.72in /  1006.3hPa Calm     92% 0.00in /  0mm 0 W/m2
22:49 62.1 °F /  16.7 °C 59.7 °F /  15.4 °C 29.72in /  1006.3hPa South 0.9mph /  1.4km/h 4mph /  6.4km/h 92% 0.00in /  0mm 0 W/m2
22:54 62.1 °F /  16.7 °C 59.7 °F /  15.4 °C 29.72in /  1006.3hPa Calm   1mph /  1.6km/h 92% 0.00in /  0mm 0 W/m2
22:59 62.1 °F /  16.7 °C 59.7 °F /  15.4 °C 29.72in /  1006.3hPa SSE 2mph /  3.2km/h 2mph /  3.2km/h 92% 0.00in /  0mm 0 W/m2
23:04 62.1 °F /  16.7 °C 59.7 °F /  15.4 °C 29.72in /  1006.3hPa Calm     92% 0.00in /  0mm 0 W/m2
23:09 62.1 °F /  16.7 °C 59.7 °F /  15.4 °C 29.72in /  1006.3hPa South 3mph /  4.8km/h 3mph /  4.8km/h 92% 0.00in /  0mm 0 W/m2
23:14 62.1 °F /  16.7 °C 60.1 °F /  15.6 °C 29.72in /  1006.3hPa Calm   5mph /  8km/h 93% 0.00in /  0mm 0 W/m2
23:19 62.1 °F /  16.7 °C 60.1 °F /  15.6 °C 29.72in /  1006.3hPa Calm     93% 0.00in /  0mm 0 W/m2
23:24 62.1 °F /  16.7 °C 60.1 °F /  15.6 °C 29.72in /  1006.3hPa Calm     93% 0.00in /  0mm 0 W/m2
23:29 62.1 °F /  16.7 °C 60.1 °F /  15.6 °C 29.72in /  1006.3hPa SW 6mph /  9.7km/h 6mph /  9.7km/h 93% 0.00in /  0mm 0 W/m2
23:34 62.1 °F /  16.7 °C 59.7 °F /  15.4 °C 29.72in /  1006.3hPa SW 2.9mph /  4.7km/h 4mph /  6.4km/h 92% 0.00in /  0mm 0 W/m2
23:39 62.2 °F /  16.8 °C 59.9 °F /  15.5 °C 29.72in /  1006.3hPa SW 0.9mph /  1.4km/h 4mph /  6.4km/h 92% 0.00in /  0mm 0 W/m2
23:44 62.2 °F /  16.8 °C 59.9 °F /  15.5 °C 29.72in /  1006.3hPa SSW 2.9mph /  4.7km/h 6mph /  9.7km/h 92% 0.00in /  0mm 0 W/m2
23:49 62.2 °F /  16.8 °C 59.9 °F /  15.5 °C 29.72in /  1006.3hPa SSW 2mph /  3.2km/h 4mph /  6.4km/h 92% 0.00in /  0mm 0 W/m2
23:54 62.2 °F /  16.8 °C 59.9 °F /  15.5 °C 29.72in /  1006.3hPa SW 0.9mph /  1.4km/h 7mph /  11.3km/h 92% 0.00in /  0mm 0 W/m2
23:59 62.2 °F /  16.8 °C 59.9 °F /  15.5 °C 29.71in /  1006hPa Calm   3mph /  4.8km/h 92% 0.00in /  0mm 0 W/m2
Bath Spa Weather
Compliments of Weather Underground - 2 mb